Location: Aranbee
(34.0885°N, 118.2342°W)
Time: 22:48:30
(UTC+00:00)

Transit 4A - All Passes

Search period start: 05 December 2020 00:00
Search period end: 15 December 2020 00:00
Orbit: 862 x 982 km, 66.8° (Epoch: 05 December)

Date Brightness Start Highest point End Pass type
(mag) Time Alt. Az. Time Alt. Az. Time Alt. Az.
05 Dec - 00:34:29 10° NW 00:40:11 38° WSW 00:45:42 10° S daylight
05 Dec - 13:50:01 10° SSW 13:56:18 85° ESE 14:02:44 10° NNE visible
05 Dec - 15:39:36 10° W 15:43:28 16° NW 15:47:22 10° N daylight
05 Dec - 22:57:16 10° NNW 23:03:19 47° ENE 23:09:10 10° SE daylight
06 Dec - 00:44:26 10° NW 00:49:17 24° WSW 00:54:00 10° SSW daylight
06 Dec - 12:16:01 10° SE 12:19:56 17° ESE 12:23:53 10° ENE visible
06 Dec - 13:59:23 10° SW 14:05:38 65° WNW 14:12:02 10° NNE visible
06 Dec - 15:51:28 10° WNW 15:53:16 11° NW 15:55:04 10° NNW daylight
06 Dec - 21:23:02 10° NNE 21:25:11 12° NE 21:27:18 10° ENE daylight
06 Dec - 23:06:26 10° NNW 23:12:43 71° ENE 23:18:46 10° SSE daylight
07 Dec - 00:55:02 10° WNW 00:58:18 15° WSW 01:01:32 10° SW daylight
07 Dec - 12:23:49 10° SSE 12:28:59 27° ESE 12:34:13 10° NE visible
07 Dec - 14:09:05 10° SW 14:15:03 44° WNW 14:21:10 10° NNE visible
07 Dec - 21:30:57 10° N 21:34:57 17° NE 21:38:53 10° E daylight
07 Dec - 23:15:45 10° NNW 23:22:02 78° WSW 23:28:05 10° SSE daylight
08 Dec - 12:32:15 10° S 12:38:07 42° ESE 12:44:05 10° NE visible
08 Dec - 14:19:06 10° WSW 14:24:35 30° NW 14:30:08 10° N visible
08 Dec - 21:39:33 10° N 21:44:37 25° NE 21:49:33 10° ESE daylight
08 Dec - 23:25:14 10° NW 23:31:15 50° WSW 23:37:03 10° S daylight
09 Dec - 12:41:06 10° SSW 12:47:18 65° ESE 12:53:40 10° NNE visible
09 Dec - 14:29:33 10° W 14:34:11 21° NW 14:38:54 10° N daylight
09 Dec - 21:48:26 10° N 21:54:11 36° NE 21:59:45 10° ESE daylight
09 Dec - 23:34:58 10° NW 23:40:24 32° WSW 23:45:40 10° SSW daylight
10 Dec - 11:08:39 10° SE 11:11:06 12° E 11:13:35 10° ENE visible
10 Dec - 12:50:16 10° SSW 12:56:35 84° WNW 13:03:03 10° NNE visible
10 Dec - 14:40:35 10° WNW 14:43:55 14° NW 14:47:15 10° NNW daylight
10 Dec - 21:57:29 10° NNW 22:03:39 54° ENE 22:09:34 10° SE daylight
10 Dec - 23:45:05 10° WNW 23:49:28 20° WSW 23:53:45 10° SSW daylight
11 Dec - 11:15:39 10° SSE 11:20:07 21° ESE 11:24:39 10° ENE visible
11 Dec - 12:59:46 10° SW 13:05:57 56° WNW 13:12:17 10° NNE visible
11 Dec - 20:22:41 10° NNE 20:25:38 13° NE 20:28:33 10° ENE daylight
11 Dec - 22:06:43 10° NNW 22:13:00 82° ENE 22:19:05 10° SSE daylight
11 Dec - 23:56:13 10° W 23:58:28 12° W 00:00:42 10° WSW daylight
12 Dec - 11:23:44 10° SSE 11:29:11 32° ESE 11:34:46 10° NE visible
12 Dec - 13:09:34 10° SW 13:15:25 38° WNW 13:21:21 10° N visible
12 Dec - 20:30:57 10° N 20:35:22 20° NE 20:39:43 10° E daylight
12 Dec - 22:16:05 10° NNW 22:22:17 66° WSW 22:28:16 10° SSE daylight
13 Dec - 11:32:19 10° S 11:38:21 50° ESE 11:44:30 10° NE visible
13 Dec - 13:19:44 10° WSW 13:24:58 26° NW 13:30:15 10° N visible
13 Dec - 20:39:40 10° N 20:45:00 28° NE 20:50:11 10° ESE daylight
13 Dec - 22:25:39 10° NW 22:31:29 42° WSW 22:37:07 10° S daylight
14 Dec - 11:41:18 10° SSW 11:47:35 76° ESE 11:54:00 10° NNE visible
14 Dec - 13:30:22 10° W 13:34:37 18° NW 13:38:54 10° N visible
14 Dec - 20:48:37 10° NNW 20:54:32 41° ENE 21:00:14 10° SE daylight
14 Dec - 22:35:30 10° NW 22:40:36 27° WSW 22:45:33 10° SSW daylight
